QPF
0.00 0.00 0.00 0.00 0.00 0.00 0.00 0.00 0.00 0.00 0.00 0.00 0.00 0.00 0.00 0.00 0.00 0.00 0.00 0.00 0.00 0.00 0.00 0.00 0.00 0.00 0.00 0.00 0.00 0.00 0.00 0.00
0.00 0.00 0.00 0.00 0.00 0.00 0.00 0.00 0.00 0.00 0.00 0.00 0.00 0.00 0.00 0.00 0.00 0.00 0.00 0.00 0.00 0.00 0.00 0.00 0.00 0.00 0.00 0.00 0.00 0.00 0.00 0.00
0.00 0.00 0.00 0.00 0.00 0.00 0.00 0.00 0.00 0.00 0.00 0.00 0.00 0.00 0.00 0.00 0.00 0.00 0.00 0.00 0.00 0.00 0.00 0.00 0.00 0.00 0.00 0.00 0.00 0.00 0.00 0.00
0.00 0.00 0.00 0.00 0.00 0.00 0.00 0.00 0.00 0.00 0.00 0.00 0.00 0.00 0.00 0.00 0.00 0.00 0.00 0.00 0.00 0.00 0.00 0.00 0.00 0.00 0.00 0.00 0.00 0.00 0.00 0.00
0.00 0.00 0.00 0.00 0.00 0.00 0.00 0.00 0.00 0.00 0.00 0.00 0.00 0.00 0.00 0.00 0.00 0.00 0.00 0.00 0.00 0.00 0.00 0.00 0.00 0.00 0.00 0.00 0.00 0.00 0.00 0.00
0.00 0.00 0.00 0.00 0.00 0.00 0.00 0.00 0.00 0.00 0.00 0.00 0.00 0.00 0.00 0.00 0.00 0.00 0.00 0.00 0.00 0.00 0.00 0.00 0.00 0.00 0.00 0.00 0.00 0.00 0.00 0.00
0.00 0.00 0.00 0.00 0.00 0.00 0.00 0.00 0.00 0.00 0.00 0.00 0.00 0.00 0.00 0.00 0.00 0.00 0.00 0.00 0.00 0.00 0.00 0.00 0.00 0.00 0.00 0.00 0.00 0.00 0.00 0.00
0.00 0.00 0.00 0.00 0.00 0.00 0.00 0.00 0.00 0.00 0.00 0.00 0.00 0.00 0.00 0.00 0.00 0.00 0.00 0.00 0.00 0.00 0.00 0.00 0.00 0.00 0.00 0.00 0.00 0.00 0.00 0.00
0.00 0.00 0.00 0.00 0.00 0.00 0.00 0.00 0.00 0.00 0.00 0.00 0.00 0.00 0.00 0.01 0.01 0.00 0.00 0.00 0.00 0.00 0.00 0.00 0.00 0.00 0.00 0.00 0.00 0.00 0.00 0.00
0.00 0.00 0.00 0.00 0.00 0.00 0.00 0.00 0.00 0.00 0.00 0.00 0.00 0.00 0.00 0.00 0.00 0.00 0.00 0.00 0.00 0.00 0.00 0.00 0.00 0.00 0.00 0.00 0.00 0.00 0.00 0.00
0.00 0.00 0.00 0.00 0.00 0.00 0.00 0.00 0.00 0.00 0.00 0.00 0.00 0.00 0.00 0.00 0.00 0.00 0.00 0.00 0.00 0.00 0.00 0.00 0.00 0.00 0.00 0.00 0.00 0.00 0.00 0.00
0.00 0.00 0.00 0.00 0.00 0.00 0.00 0.00 0.00 0.00 0.00 0.00 0.00 0.00 0.01 0.01 0.00 0.00 0.00 0.00 0.00 0.00 0.00 0.00 0.00 0.00 0.00 0.00 0.00 0.00 0.00 0.00
0.00 0.00 0.00 0.00 0.00 0.00 0.00 0.00 0.00 0.00 0.00 0.00 0.00 0.00 0.00 0.00 0.01 0.00 0.00 0.00 0.00 0.00 0.00 0.00 0.00 0.00 0.00 0.00 0.01 0.01 0.00 0.00
0.00 0.00 0.00 0.00 0.00 0.00 0.00 0.00 0.00 0.00 0.00 0.00 0.00 0.00 0.00 0.00 0.00 0.00 0.00 0.00 0.00 0.00 0.00 0.00 0.00 0.00 0.00 0.00 0.00 0.00 0.00 0.00
0.00 0.00 0.00 0.00 0.00 0.00 0.00 0.00 0.00 0.00 0.00 0.00 0.00 0.00 0.00 0.00 0.00 0.00 0.00 0.00 0.00 0.00 0.00 0.00 0.00 0.00 0.00 0.00 0.00 0.00 0.00 0.00
0.00 0.00 0.00 0.00 0.00 0.00 0.00 0.00 0.00 0.00 0.00 0.00 0.00 0.00 0.00 0.00 0.00 0.00 0.00 0.00 0.00 0.00 0.00 0.00 0.00 0.00 0.00 0.00 0.00 0.00 0.00 0.00
0.00 0.00 0.00 0.00 0.00 0.00 0.00 0.00 0.00 0.00 0.00 0.00 0.00 0.00 0.00 0.00 0.00 0.00 0.00 0.00 0.00 0.00 0.00 0.00 0.00 0.00 0.00 0.00 0.00 0.00 0.00 0.00
0.00 0.00 0.00 0.00 0.00 0.00 0.00 0.00 0.00 0.00 0.00 0.00 0.00 0.00 0.00 0.00 0.00 0.00 0.00 0.00 0.00 0.00 0.00 0.00 0.00 0.00 0.00 0.01 0.01 0.01 0.01 0.00
0.00 0.00 0.00 0.00 0.00 0.00 0.00 0.00 0.00 0.00 0.00 0.00 0.00 0.00 0.00 0.00 0.00 0.00 0.00 0.00 0.00 0.00 0.00 0.00 0.00 0.01 0.01 0.01 0.01 0.01 0.03 0.03
0.00 0.00 0.00 0.00 0.00 0.00 0.00 0.00 0.00 0.00 0.00 0.00 0.00 0.00 0.00 0.00 0.00 0.00 0.00 0.00 0.00 0.00 0.00 0.01 0.01 0.01 0.01 0.01 0.01 0.01 0.03 0.04
MSLP
1012.58 1013.03 1013.35 1013.79 1013.93 1014.10 1014.51 1014.87 1015.09 1015.47 1015.73 1016.04 1016.30 1016.68 1017.12 1017.48 1017.71 1018.07 1018.36 1018.63 1019.00 1019.26 1019.36 1019.45 1019.57 1019.64 1019.69 1019.69 1019.63 1019.57 1019.16 1019.14
1012.56 1012.92 1013.14 1013.41 1013.78 1014.17 1014.47 1014.85 1015.18 1015.44 1015.74 1016.02 1016.37 1016.86 1017.13 1017.54 1017.87 1018.09 1018.21 1018.57 1018.89 1019.27 1019.51 1019.53 1019.59 1019.64 1019.70 1019.92 1020.05 1019.98 1019.34 1019.31
1012.60 1012.90 1013.15 1013.49 1013.88 1014.16 1014.64 1015.01 1015.33 1015.56 1015.83 1016.18 1016.56 1016.51 1016.91 1017.30 1017.56 1018.06 1018.39 1018.56 1018.82 1019.17 1019.47 1019.52 1019.58 1019.65 1019.72 1019.76 1019.88 1019.37 1019.42 1019.48
1012.47 1012.83 1013.08 1013.49 1013.85 1014.09 1014.37 1014.79 1015.11 1015.44 1015.70 1015.99 1016.20 1016.46 1016.75 1017.03 1017.58 1018.01 1018.31 1018.53 1018.77 1019.00 1019.38 1019.59 1019.55 1019.35 1019.36 1019.77 1019.47 1019.40 1019.56 1019.33
1012.14 1012.59 1012.96 1013.36 1013.64 1013.99 1014.25 1014.77 1015.06 1015.39 1015.60 1015.93 1016.23 1016.50 1016.77 1017.04 1017.33 1017.81 1018.14 1018.52 1018.42 1018.69 1018.88 1019.11 1019.40 1019.45 1019.44 1019.40 1019.54 1019.72 1019.45 1019.51
1011.80 1012.30 1012.77 1013.22 1013.53 1013.77 1014.21 1014.62 1014.95 1015.39 1015.72 1015.92 1016.26 1016.59 1016.80 1016.99 1017.09 1017.39 1017.85 1018.16 1018.44 1018.54 1018.52 1018.54 1018.86 1019.14 1019.17 1019.10 1019.43 1019.52 1019.58 1019.69
1011.39 1012.02 1012.46 1012.96 1013.38 1013.65 1014.03 1014.40 1014.87 1015.25 1015.67 1016.01 1016.28 1016.69 1016.93 1016.98 1017.11 1017.34 1017.56 1017.92 1018.10 1018.26 1018.41 1018.50 1018.62 1018.82 1018.83 1018.88 1018.89 1018.92 1019.09 1019.20
1010.96 1011.64 1012.02 1012.55 1013.22 1013.67 1014.12 1014.47 1014.83 1015.24 1015.62 1015.92 1016.23 1016.48 1016.87 1017.09 1016.97 1017.15 1017.23 1017.55 1017.56 1017.72 1017.82 1017.99 1018.10 1018.31 1018.58 1018.80 1018.64 1018.59 1018.65 1018.68
1010.54 1011.33 1011.94 1012.55 1013.09 1013.51 1014.01 1014.46 1014.79 1015.18 1015.50 1015.80 1016.11 1016.34 1016.55 1016.65 1016.85 1016.97 1016.82 1016.92 1017.32 1017.55 1017.69 1017.88 1017.88 1017.95 1017.98 1018.05 1018.18 1018.27 1018.23 1018.33
1010.33 1011.19 1011.82 1012.38 1012.85 1013.36 1013.85 1014.28 1014.70 1015.00 1015.31 1015.55 1015.79 1016.04 1016.24 1016.50 1016.40 1016.61 1016.64 1016.82 1017.00 1017.07 1017.34 1017.50 1017.55 1017.47 1017.31 1017.32 1017.43 1017.42 1017.50 1017.67
1010.19 1010.96 1011.64 1012.27 1012.87 1013.48 1013.91 1014.17 1014.66 1014.98 1015.11 1015.32 1015.63 1015.83 1016.05 1016.18 1016.28 1016.21 1016.37 1016.65 1016.81 1016.83 1016.91 1017.10 1017.09 1017.12 1017.14 1017.00 1016.83 1016.74 1016.73 1016.89
1010.17 1010.84 1011.62 1012.29 1012.91 1013.26 1013.74 1014.09 1014.22 1014.66 1015.04 1015.12 1015.39 1015.58 1015.75 1015.95 1016.05 1016.09 1016.34 1016.54 1016.54 1016.60 1016.58 1016.51 1016.49 1016.37 1016.27 1016.32 1016.31 1016.34 1016.50 1016.35
1010.45 1010.85 1011.46 1012.10 1012.66 1013.16 1013.47 1013.80 1014.16 1014.49 1014.73 1014.99 1015.21 1015.40 1015.64 1015.83 1015.98 1015.94 1015.97 1016.35 1016.34 1016.38 1016.24 1016.19 1016.25 1016.43 1016.52 1016.58 1016.36 1016.20 1015.90 1016.45
1010.61 1011.03 1011.52 1012.08 1012.55 1013.17 1013.51 1014.08 1014.57 1014.84 1015.19 1015.46 1015.61 1015.74 1015.90 1015.96 1015.97 1016.07 1016.21 1016.26 1016.19 1016.06 1015.92 1016.02 1015.95 1016.25 1016.42 1016.59 1016.38 1016.09 1016.09 1015.72
1010.80 1011.19 1011.72 1012.26 1012.85 1013.46 1013.93 1014.28 1014.68 1014.92 1015.39 1015.57 1015.76 1015.98 1016.15 1016.26 1016.24 1016.25 1016.26 1016.20 1016.01 1015.84 1015.67 1015.38 1015.11 1015.24 1015.57 1015.93 1015.96 1015.25 1015.08 1014.76
1011.26 1011.62 1012.07 1012.71 1013.10 1013.38 1013.76 1014.30 1014.80 1015.74 1016.01 1016.14 1016.15 1016.22 1016.25 1016.21 1016.17 1016.05 1015.94 1015.81 1015.61 1015.38 1015.17 1014.86 1014.66 1014.26 1014.58 1014.61 1014.30 1014.30 1014.32 1014.22
1011.79 1012.08 1012.44 1012.92 1013.21 1013.73 1014.33 1014.92 1015.45 1015.95 1016.27 1016.30 1016.33 1016.29 1016.22 1016.09 1015.99 1015.80 1015.61 1015.43 1015.15 1014.96 1014.59 1014.16 1013.77 1013.39 1013.28 1013.33 1013.66 1013.47 1013.75 1013.74
1012.00 1012.28 1013.01 1013.49 1013.75 1014.35 1014.81 1015.43 1015.84 1015.97 1016.18 1016.30 1016.28 1016.33 1016.18 1015.86 1015.74 1015.60 1015.38 1015.03 1014.69 1014.29 1013.94 1013.61 1013.25 1012.78 1012.46 1012.37 1012.32 1012.32 1012.40 1013.01
1012.14 1012.37 1013.22 1013.82 1014.17 1014.72 1015.21 1015.55 1015.84 1015.92 1016.11 1016.21 1016.19 1016.04 1015.84 1015.55 1015.41 1015.16 1014.84 1014.56 1014.30 1013.92 1013.56 1013.22 1012.73 1012.25 1011.61 1011.22 1011.07 1011.02 1011.25 1011.32
1011.95 1012.51 1013.27 1013.86 1014.27 1014.73 1015.27 1015.57 1015.66 1015.81 1015.89 1015.88 1015.81 1015.61 1015.35 1015.20 1014.96 1014.77 1014.51 1014.21 1013.80 1013.45 1013.01 1012.34 1011.81 1011.43 1010.72 1010.52 1010.48 1010.34 1010.33 1010.35
Thickness
5762 5756 5750 5745 5742 5740 5736 5733 5732 5728 5726 5723 5721 5717 5713 5709 5706 5702 5699 5696 5694 5694 5693 5692 5690 5688 5685 5684 5684 5683 5684 5684
5758 5753 5748 5744 5740 5737 5734 5731 5728 5726 5723 5721 5718 5713 5710 5707 5703 5700 5699 5695 5693 5691 5689 5689 5688 5686 5684 5681 5679 5679 5681 5681
5751 5747 5743 5740 5736 5733 5729 5726 5724 5723 5720 5717 5714 5712 5709 5706 5703 5699 5697 5695 5693 5691 5690 5688 5688 5686 5683 5682 5680 5681 5679 5678
5746 5742 5740 5736 5733 5731 5727 5724 5721 5719 5718 5715 5712 5710 5708 5705 5702 5698 5696 5694 5692 5689 5688 5686 5687 5686 5685 5681 5681 5680 5677 5677
5743 5739 5736 5733 5731 5728 5725 5720 5718 5716 5714 5712 5709 5707 5705 5703 5700 5696 5693 5691 5690 5689 5687 5686 5684 5683 5682 5681 5678 5675 5675 5674
5739 5736 5733 5730 5727 5725 5720 5716 5714 5711 5709 5708 5705 5703 5701 5699 5698 5696 5691 5688 5685 5685 5685 5686 5684 5681 5680 5679 5675 5672 5670 5668
5737 5734 5730 5727 5726 5722 5718 5714 5710 5707 5705 5703 5701 5698 5696 5696 5695 5693 5690 5686 5683 5681 5680 5679 5679 5678 5678 5676 5674 5672 5669 5666
5736 5731 5729 5724 5720 5718 5713 5710 5707 5704 5701 5699 5697 5695 5692 5690 5690 5688 5687 5684 5683 5680 5677 5675 5674 5673 5670 5668 5667 5666 5665 5665
5733 5728 5725 5720 5715 5712 5709 5705 5703 5701 5698 5695 5693 5691 5688 5687 5686 5685 5684 5682 5678 5675 5672 5668 5667 5665 5664 5663 5661 5659 5659 5657
5731 5725 5720 5717 5713 5709 5705 5701 5697 5696 5694 5692 5689 5687 5685 5683 5682 5681 5679 5676 5673 5671 5668 5665 5663 5663 5663 5660 5656 5654 5653 5651
5726 5721 5716 5712 5708 5702 5698 5696 5691 5689 5689 5686 5683 5681 5679 5678 5676 5675 5673 5670 5667 5666 5662 5658 5656 5654 5651 5651 5649 5648 5646 5643
5723 5717 5711 5706 5701 5699 5694 5691 5690 5685 5681 5680 5677 5675 5674 5671 5669 5668 5664 5662 5660 5657 5655 5654 5652 5650 5648 5643 5641 5639 5633 5632
5714 5711 5706 5701 5696 5692 5689 5686 5684 5680 5676 5673 5670 5669 5666 5663 5660 5658 5655 5652 5650 5647 5645 5642 5638 5633 5628 5624 5626 5623 5623 5615
5706 5703 5699 5695 5691 5685 5683 5678 5674 5670 5665 5662 5660 5657 5654 5652 5650 5647 5644 5641 5637 5635 5632 5626 5623 5616 5609 5605 5608 5611 5605 5607
5696 5694 5691 5686 5681 5675 5671 5668 5664 5661 5656 5653 5650 5647 5643 5639 5637 5634 5631 5627 5624 5622 5617 5614 5612 5607 5599 5588 5582 5592 5594 5594
5683 5681 5679 5674 5672 5668 5663 5658 5654 5645 5642 5639 5638 5634 5631 5629 5626 5622 5619 5615 5611 5607 5602 5600 5595 5594 5585 5579 5573 5571 5573 5572
5670 5668 5667 5663 5661 5657 5650 5644 5639 5634 5630 5628 5626 5623 5619 5616 5612 5609 5606 5602 5597 5592 5589 5585 5582 5578 5572 5565 5555 5550 5543 5541
5658 5657 5650 5647 5645 5639 5634 5628 5625 5624 5620 5615 5613 5609 5606 5603 5599 5595 5591 5586 5581 5576 5572 5568 5563 5559 5554 5547 5538 5536 5532 5518
5646 5646 5638 5633 5629 5625 5620 5617 5613 5611 5607 5603 5600 5599 5595 5591 5586 5581 5576 5570 5564 5559 5554 5548 5543 5535 5533 5531 5525 5520 5511 5504
5635 5632 5625 5620 5617 5613 5608 5604 5602 5599 5596 5593 5590 5586 5583 5578 5572 5565 5560 5554 5549 5542 5536 5531 5524 5516 5515 5507 5498 5493 5484 5474